This demonstration page uses our WeatherBlox Daily Observations layout. Learn more.

Left ArrowRight Arrow

39.95238, -75.16362

Hourly Observations for May 13, 2016

Temp ( °F °C ) Dew Point ( °F °C ) Humidity (%) Winds ( mph kmh ) Pressure ( in mb ) Visibility ( mi km ) Precip ( " mm )
12:54 am 00:54 Cloudy 63 17.2 57 13.9 81 81 S 6 9 29.99 1016 10 16 0.00 0.00
1:54 am 01:54 Cloudy 63 17.2 58 14.4 84 84 S 5 7 29.97 1015 10 16 0.00 0.00
2:48 am 02:48 Cloudy 63 17 57 14 83 83 SE 5 7 29.94 1014 10 16 0.00 0.00
2:54 am 02:54 Cloudy 62 16.7 57 13.9 84 84 SE 5 7 29.94 1014 10 16 0.00 0.00
3:54 am 03:54 Cloudy 61 16.1 57 13.9 87 87 S 6 9 29.94 1014 10 16 0.00 0.00
4:47 am 04:47 Cloudy 60 15.6 56 13.3 86 86 SE 7 11 29.91 1013 10 16 0.00 0.00
4:54 am 04:54 Cloudy 60 15.6 56 13.3 86 86 ESE 6 9 29.92 1013 10 16 0.00 0.00
5:54 am 05:54 Cloudy 60 15.6 56 13.3 86 86 Calm 29.90 1013 10 16 0.00 0.00
6:17 am 06:17 Cloudy 60 15.6 56 13.3 86 86 ESE 3 6 29.91 1013 8 13 0.00 0.00
6:54 am 06:54 Cloudy 61 16.1 56 13.3 84 84 SE 5 7 29.90 1012 7 11 0.00 0.00
7:02 am 07:02 Cloudy with Haze 61 16.1 56 13.3 84 84 S 5 7 29.91 1013 6 10 0.00 0.00
7:44 am 07:44 Cloudy 61 16.1 56 13.3 84 84 SSW 5 7 29.91 1013 7 11 0.00 0.00
7:51 am 07:51 Cloudy 61 16 55 13 83 83 SSW 6 9 29.91 1013 7 11 0.00 0.00
7:54 am 07:54 Cloudy 61 16.1 56 13.3 84 84 SSW 5 7 29.90 1013 7 11 0.00 0.00
8:54 am 08:54 Cloudy 63 17.2 57 13.9 81 81 VRB 3 6 29.89 1012 8 13 0.00 0.00
9:13 am 09:13 Cloudy 63 17.2 57 13.9 81 81 S 7 11 29.88 1012 8 13 0.00 0.00
9:54 am 09:54 Cloudy 64 17.8 58 14.4 81 81 SSW 7 11 29.88 1012 9 14 0.00 0.00
10:54 am 10:54 Cloudy 65 18.3 58 14.4 78 78 SSW 8 13 29.86 1011 9 14 0.00 0.00
11:54 am 11:54 Cloudy 66 18.9 59 15 78 78 SW 8 13 29.85 1011 8 13 0.00 0.00
12:26 pm 12:26 Cloudy with Light Rain 65 18.3 60 15.6 84 84 SSW 9 15 29.85 1011 6 10 0.00 0.03
12:32 pm 12:32 Cloudy with Light Rain 65 18.3 60 15.6 84 84 SSW 10 17 29.85 1011 4 6 0.01 0.25
12:36 pm 12:36 Cloudy with Rain 65 18.3 60 15.6 84 84 SSW 9 15 29.85 1011 3 4 0.01 0.25
12:54 pm 12:54 Cloudy with Light Rain 65 18.3 61 16.1 87 87 SSW 8 13 29.84 1010 3 4 0.05 1.27
1:21 pm 13:21 Cloudy with Light Rain 65 18.3 61 16.1 87 87 SSW 10 17 29.83 1010 3 5 0.02 0.51
1:49 pm 13:49 Cloudy with Light Rain 64 18 61 16 88 88 SSW 8 13 29.83 1010 5 8 0.03 0.76
1:54 pm 13:54 Cloudy with Light Rain 65 18.3 61 16.1 87 87 SSW 7 11 29.82 1010 4 6 0.03 0.76
2:05 pm 14:05 Cloudy with Light Rain 65 18.3 62 16.7 90 90 SSW 7 11 29.83 1010 3 4 0.01 0.25
2:44 pm 14:44 Cloudy with Light Rain 65 18.3 62 16.7 90 90 SW 10 17 29.80 1009 3 5 0.04 1.02
2:54 pm 14:54 Cloudy with Light Rain 66 18.9 62 16.7 87 87 SW 12 19 29.81 1009 3 5 0.05 1.27
3:15 pm 15:15 Cloudy with Light Rain 66 18.9 63 17.2 90 90 WSW 9 15 29.80 1009 4 6 0.02 0.51
3:44 pm 15:44 Cloudy with Light Rain 66 19 63 17 88 88 SW 10 17 29.80 1009 7 11 0.00 0.00
3:54 pm 15:54 Cloudy 66 18.9 63 17.2 90 90 SW 10 17 29.80 1009 8 13 0.05 1.27
4:00 pm 16:00 Cloudy with Rain 66 18.9 63 17.2 90 90 SW 12 19 29.80 1009 3 5 0.00 0.03
4:09 pm 16:09 Cloudy with Light Rain 66 18.9 63 17.2 90 90 WSW 10 17 29.80 1009 5 8 0.02 0.51
4:15 pm 16:15 Cloudy 66 18.9 63 17.2 90 90 SW 12 19 29.80 1009 10 16 0.02 0.51
4:54 pm 16:54 Cloudy 67 19.4 63 17.2 87 87 WSW 9 15 29.79 1009 10 16 0.02 0.51
5:05 pm 17:05 Cloudy 67 19.4 63 17.2 87 87 WSW 8 13 29.80 1009 10 16 0.00 0.00
5:54 pm 17:54 Mostly Cloudy 68 20 63 17.2 84 84 W 6 9 29.79 1009 10 16 0.00 0.00
6:54 pm 18:54 Mostly Cloudy 68 20 62 16.7 81 81 WSW 6 9 29.79 1009 10 16 0.00 0.00
7:54 pm 19:54 Partly Cloudy 68 20 60 15.6 76 76 SSW 7 11 29.80 1009 10 16 0.00 0.00
8:54 pm 20:54 Partly Cloudy 64 17.8 61 16.1 90 90 SSW 6 9 29.80 1009 10 16 0.00 0.00
9:54 pm 21:54 Clear 65 18.3 61 16.1 87 87 WSW 7 11 29.81 1010 10 16 0.00 0.00
10:35 pm 22:35 Clear 63 17.2 60 15.6 90 90 WSW 7 11 29.83 1010 7 11 0.00 0.00
10:54 pm 22:54 Clear 63 17.2 61 16.1 93 93 WSW 8 13 29.83 1010 7 11 0.00 0.00
11:14 pm 23:14 Clear with Mist and Fog 62 16.7 60 15.6 93 93 WSW 8 13 29.83 1010 5 8 0.00 0.00
11:35 pm 23:35 Mostly Clear with Mist and Fog 61 16.1 59 15 93 93 W 8 13 29.83 1010 4 6 0.00 0.00
11:54 pm 23:54 Clear with Mist and Fog 62 16.7 59 15 90 90 W 8 13 29.83 1010 4 6 0.00 0.00

Powered by AerisWeather